Time,TemperatureF,DewpointF,PressureIn,WindDirection,WindDirectionDegrees,WindSpeedMPH,WindSpeedGustMPH,Humidity,HourlyPrecipIn,Conditions,Clouds,dailyrainin,SoftwareType,DateUTC
2013-03-06 00:00:00,28.1,24.5,30.07,North,355,0.0,12.0,86,0.00,,,0.00,Wunderground v.1.15,2013-03-06 05:00:00,
2013-03-06 00:10:00,27.9,24.3,30.07,North,355,0.0,12.0,86,0.00,,,0.00,Wunderground v.1.15,2013-03-06 05:10:00,
2013-03-06 00:15:00,27.7,24.1,30.07,North,355,0.0,12.0,86,0.00,,,0.00,Wunderground v.1.15,2013-03-06 05:15:00,
2013-03-06 00:20:00,27.5,23.9,30.07,North,355,0.0,12.0,86,0.00,,,0.00,Wunderground v.1.15,2013-03-06 05:20:00,
2013-03-06 00:25:00,27.4,24.0,30.07,North,355,0.0,12.0,87,0.00,,,0.00,Wunderground v.1.15,2013-03-06 05:25:00,
2013-03-06 00:30:00,27.3,23.9,30.07,North,355,0.0,12.0,87,0.00,,,0.00,Wunderground v.1.15,2013-03-06 05:30:00,
2013-03-06 00:35:00,27.1,23.7,30.07,North,355,0.0,12.0,87,0.00,,,0.00,Wunderground v.1.15,2013-03-06 05:35:00,
2013-03-06 00:45:00,26.9,23.8,30.07,North,355,0.0,12.0,88,0.00,,,0.00,Wunderground v.1.15,2013-03-06 05:45:00,
2013-03-06 00:50:00,26.8,23.7,30.07,North,355,0.0,12.0,88,0.00,,,0.00,Wunderground v.1.15,2013-03-06 05:50:00,
2013-03-06 00:55:00,26.6,23.5,30.07,North,355,0.0,12.0,88,0.00,,,0.00,Wunderground v.1.15,2013-03-06 05:55:00,
2013-03-06 01:00:00,26.5,23.4,30.07,North,355,0.0,12.0,88,0.00,,,0.00,Wunderground v.1.15,2013-03-06 06:00:00,
2013-03-06 01:10:00,26.5,23.7,30.07,North,355,0.0,12.0,89,0.00,,,0.00,Wunderground v.1.15,2013-03-06 06:10:00,
2013-03-06 01:15:00,26.4,23.6,30.07,North,355,0.0,12.0,89,0.00,,,0.00,Wunderground v.1.15,2013-03-06 06:15:00,
2013-03-06 01:20:00,26.4,23.6,30.07,North,355,0.0,12.0,89,0.00,,,0.00,Wunderground v.1.15,2013-03-06 06:20:00,
2013-03-06 01:25:00,26.4,23.6,30.07,North,355,0.0,12.0,89,0.00,,,0.00,Wunderground v.1.15,2013-03-06 06:25:00,
2013-03-06 01:30:00,26.3,23.5,30.07,North,355,0.0,12.0,89,0.00,,,0.00,Wunderground v.1.15,2013-03-06 06:30:00,
2013-03-06 01:35:00,26.2,23.4,30.07,North,355,0.0,12.0,89,0.00,,,0.00,Wunderground v.1.15,2013-03-06 06:35:00,
2013-03-06 01:40:00,26.2,23.4,30.07,North,355,0.0,12.0,89,0.00,,,0.00,Wunderground v.1.15,2013-03-06 06:40:00,
2013-03-06 01:50:00,26.0,23.2,30.07,North,355,0.0,12.0,89,0.00,,,0.00,Wunderground v.1.15,2013-03-06 06:50:00,
2013-03-06 01:55:00,26.0,23.2,30.07,North,355,0.0,12.0,89,0.00,,,0.00,Wunderground v.1.15,2013-03-06 06:55:00,
2013-03-06 02:00:00,25.9,23.1,30.07,North,355,0.0,12.0,89,0.00,,,0.00,Wunderground v.1.15,2013-03-06 07:00:00,
2013-03-06 02:05:00,25.9,23.4,30.07,North,355,0.0,12.0,90,0.00,,,0.00,Wunderground v.1.15,2013-03-06 07:05:00,
2013-03-06 02:10:00,26.0,23.5,30.07,North,355,0.0,12.0,90,0.00,,,0.00,Wunderground v.1.15,2013-03-06 07:10:00,
2013-03-06 02:15:00,26.1,23.6,30.06,North,355,0.0,12.0,90,0.00,,,0.00,Wunderground v.1.15,2013-03-06 07:15:00,
2013-03-06 02:25:00,26.2,23.7,30.06,North,355,0.0,12.0,90,0.00,,,0.00,Wunderground v.1.15,2013-03-06 07:25:00,
2013-03-06 02:30:00,26.2,23.7,30.07,North,355,0.0,12.0,90,0.00,,,0.00,Wunderground v.1.15,2013-03-06 07:30:00,
2013-03-06 02:35:00,26.3,23.8,30.06,North,355,0.0,12.0,90,0.00,,,0.00,Wunderground v.1.15,2013-03-06 07:35:00,
2013-03-06 02:40:00,26.3,23.8,30.06,North,355,0.0,12.0,90,0.00,,,0.00,Wunderground v.1.15,2013-03-06 07:40:00,
2013-03-06 02:45:00,26.4,23.9,30.06,North,355,0.0,12.0,90,0.00,,,0.00,Wunderground v.1.15,2013-03-06 07:45:00,
2013-03-06 02:50:00,26.6,24.1,30.06,North,355,0.0,12.0,90,0.00,,,0.00,Wunderground v.1.15,2013-03-06 07:50:00,
2013-03-06 02:55:00,26.7,24.2,30.06,North,355,0.0,12.0,90,0.00,,,0.00,Wunderground v.1.15,2013-03-06 07:55:00,
2013-03-06 03:05:00,27.4,25.1,30.05,NNE,28,0.0,12.0,91,0.00,,,0.00,Wunderground v.1.15,2013-03-06 08:05:00,
2013-03-06 03:10:00,27.7,25.4,30.05,NNE,28,0.0,12.0,91,0.00,,,0.00,Wunderground v.1.15,2013-03-06 08:10:00,
2013-03-06 03:15:00,28.1,25.5,30.05,NE,51,1.0,12.0,90,0.00,,,0.00,Wunderground v.1.15,2013-03-06 08:15:00,
2013-03-06 03:20:00,28.3,25.7,30.05,NE,47,1.0,12.0,90,0.00,,,0.00,Wunderground v.1.15,2013-03-06 08:20:00,
2013-03-06 03:25:00,28.5,25.7,30.05,NE,41,1.0,12.0,89,0.00,,,0.00,Wunderground v.1.15,2013-03-06 08:25:00,
2013-03-06 03:30:00,28.7,25.9,30.05,NE,41,1.0,1.0,89,0.00,,,0.00,Wunderground v.1.15,2013-03-06 08:30:00,
2013-03-06 03:35:00,28.8,25.7,30.05,NNE,28,0.0,12.0,88,0.00,,,0.00,Wunderground v.1.15,2013-03-06 08:35:00,
2013-03-06 03:45:00,29.0,25.9,30.05,ENE,70,1.0,12.0,88,0.00,,,0.00,Wunderground v.1.15,2013-03-06 08:45:00,
2013-03-06 03:50:00,29.0,25.9,30.05,NE,34,1.0,1.0,88,0.00,,,0.00,Wunderground v.1.15,2013-03-06 08:50:00,
2013-03-06 03:55:00,29.0,25.9,30.05,NE,34,0.0,12.0,88,0.00,,,0.00,Wunderground v.1.15,2013-03-06 08:55:00,
2013-03-06 04:00:00,29.1,26.0,30.05,NE,34,0.0,12.0,88,0.00,,,0.00,Wunderground v.1.15,2013-03-06 09:00:00,
2013-03-06 04:10:00,29.2,26.1,30.05,NE,34,0.0,0.0,88,0.00,,,0.00,Wunderground v.1.15,2013-03-06 09:10:00,
2013-03-06 04:15:00,29.3,26.2,30.06,NNE,22,1.0,2.0,88,0.00,,,0.00,Wunderground v.1.15,2013-03-06 09:15:00,
2013-03-06 04:20:00,29.3,26.2,30.06,NNE,30,1.0,1.0,88,0.00,,,0.00,Wunderground v.1.15,2013-03-06 09:20:00,
2013-03-06 04:25:00,29.3,26.5,30.05,NNE,30,1.0,1.0,89,0.00,,,0.00,Wunderground v.1.15,2013-03-06 09:25:00,
2013-03-06 04:35:00,29.4,26.6,30.05,NNE,13,0.0,0.0,89,0.00,,,0.00,Wunderground v.1.15,2013-03-06 09:35:00,
2013-03-06 04:40:00,29.4,26.6,30.05,NE,36,0.0,0.0,89,0.00,,,0.00,Wunderground v.1.15,2013-03-06 09:40:00,
2013-03-06 04:45:00,29.4,26.6,30.05,NE,36,0.0,0.0,89,0.00,,,0.00,Wunderground v.1.15,2013-03-06 09:45:00,
2013-03-06 04:50:00,29.4,26.6,30.05,NE,36,0.0,2.0,89,0.00,,,0.00,Wunderground v.1.15,2013-03-06 09:50:00,
2013-03-06 04:55:00,29.4,26.6,30.05,NE,36,0.0,2.0,89,0.00,,,0.00,Wunderground v.1.15,2013-03-06 09:55:00,
2013-03-06 05:00:00,29.5,26.7,30.05,NE,36,0.0,0.0,89,0.00,,,0.00,Wunderground v.1.15,2013-03-06 10:00:00,
2013-03-06 05:10:00,29.5,26.7,30.05,ENE,62,0.0,5.0,89,0.00,,,0.00,Wunderground v.1.15,2013-03-06 10:10:00,
2013-03-06 05:15:00,29.5,26.7,30.06,ENE,62,0.0,5.0,89,0.00,,,0.00,Wunderground v.1.15,2013-03-06 10:15:00,
2013-03-06 05:20:00,29.5,26.7,30.06,ENE,62,0.0,5.0,89,0.00,,,0.00,Wunderground v.1.15,2013-03-06 10:20:00,
2013-03-06 05:25:00,29.5,26.4,30.06,ENE,62,0.0,5.0,88,0.00,,,0.00,Wunderground v.1.15,2013-03-06 10:25:00,
2013-03-06 05:30:00,29.5,26.4,30.06,ENE,62,0.0,5.0,88,0.00,,,0.00,Wunderground v.1.15,2013-03-06 10:30:00,
2013-03-06 05:35:00,29.5,26.4,30.06,NE,56,0.0,5.0,88,0.00,,,0.00,Wunderground v.1.15,2013-03-06 10:35:00,
2013-03-06 05:45:00,29.5,26.4,30.06,NE,56,0.0,5.0,88,0.00,,,0.00,Wunderground v.1.15,2013-03-06 10:45:00,
2013-03-06 05:50:00,29.6,26.8,30.06,NE,56,0.0,5.0,89,0.00,,,0.00,Wunderground v.1.15,2013-03-06 10:50:00,
2013-03-06 05:55:00,29.7,26.9,30.06,NE,51,0.0,5.0,89,0.00,,,0.00,Wunderground v.1.15,2013-03-06 10:55:00,
2013-03-06 06:00:00,29.8,26.7,30.05,NE,51,0.0,5.0,88,0.00,,,0.00,Wunderground v.1.15,2013-03-06 11:00:00,
2013-03-06 06:05:00,29.8,26.7,30.05,NE,51,0.0,5.0,88,0.00,,,0.00,Wunderground v.1.15,2013-03-06 11:05:00,
2013-03-06 06:10:00,29.8,26.7,30.06,NE,51,0.0,5.0,88,0.00,,,0.00,Wunderground v.1.15,2013-03-06 11:10:00,
2013-03-06 06:15:00,29.8,26.7,30.05,NE,51,0.0,5.0,88,0.00,,,0.00,Wunderground v.1.15,2013-03-06 11:15:00,
2013-03-06 06:25:00,29.9,26.8,30.06,NE,51,0.0,5.0,88,0.00,,,0.00,Wunderground v.1.15,2013-03-06 11:25:00,
2013-03-06 06:30:00,29.9,26.8,30.06,NE,51,0.0,5.0,88,0.00,,,0.00,Wunderground v.1.15,2013-03-06 11:30:00,
2013-03-06 06:35:00,29.9,26.8,30.06,ENE,69,1.0,5.0,88,0.00,,,0.00,Wunderground v.1.15,2013-03-06 11:35:00,
2013-03-06 06:40:00,30.0,26.9,30.06,NE,38,1.0,1.0,88,0.00,,,0.00,Wunderground v.1.15,2013-03-06 11:40:00,
2013-03-06 06:45:00,30.0,26.9,30.06,NNE,23,1.0,5.0,88,0.00,,,0.00,Wunderground v.1.15,2013-03-06 11:45:00,
2013-03-06 06:50:00,30.1,27.0,30.06,NNE,30,1.0,5.0,88,0.00,,,0.00,Wunderground v.1.15,2013-03-06 11:50:00,
2013-03-06 07:00:00,30.3,27.4,30.06,NNE,30,1.0,5.0,89,0.00,,,0.00,Wunderground v.1.15,2013-03-06 12:00:00,
2013-03-06 07:05:00,30.4,27.5,30.06,NE,45,1.0,5.0,89,0.00,,,0.00,Wunderground v.1.15,2013-03-06 12:05:00,
2013-03-06 07:10:00,30.5,27.4,30.06,NE,45,0.0,5.0,88,0.00,,,0.00,Wunderground v.1.15,2013-03-06 12:10:00,
2013-03-06 07:15:00,30.5,27.4,30.06,NNE,21,0.0,5.0,88,0.00,,,0.00,Wunderground v.1.15,2013-03-06 12:15:00,
2013-03-06 07:20:00,30.7,27.6,30.06,ENE,59,0.0,5.0,88,0.00,,,0.00,Wunderground v.1.15,2013-03-06 12:20:00,
2013-03-06 07:25:00,30.7,27.6,30.06,ENE,59,0.0,5.0,88,0.00,,,0.00,Wunderground v.1.15,2013-03-06 12:25:00,
2013-03-06 07:30:00,30.8,27.7,30.06,ENE,59,0.0,5.0,88,0.00,,,0.00,Wunderground v.1.15,2013-03-06 12:30:00,
2013-03-06 07:40:00,31.0,27.9,30.06,ENE,59,0.0,5.0,88,0.00,,,0.00,Wunderground v.1.15,2013-03-06 12:40:00,
2013-03-06 07:45:00,31.2,28.1,30.06,NE,38,1.0,5.0,88,0.00,,,0.00,Wunderground v.1.15,2013-03-06 12:45:00,
2013-03-06 07:50:00,31.3,28.2,30.06,NNE,22,1.0,1.0,88,0.00,,,0.00,Wunderground v.1.15,2013-03-06 12:50:00,
2013-03-06 07:55:00,31.5,28.1,30.06,NE,49,1.0,5.0,87,0.00,,,0.00,Wunderground v.1.15,2013-03-06 12:55:00,
2013-03-06 08:00:00,31.6,28.2,30.06,NE,53,1.0,5.0,87,0.00,,,0.00,Wunderground v.1.15,2013-03-06 13:00:00,
2013-03-06 08:05:00,31.7,28.3,30.06,East,84,1.0,5.0,87,0.00,,,0.00,Wunderground v.1.15,2013-03-06 13:05:00,
2013-03-06 08:10:00,31.9,28.5,30.06,NE,48,0.0,5.0,87,0.00,,,0.00,Wunderground v.1.15,2013-03-06 13:10:00,
2013-03-06 08:20:00,32.2,28.8,30.06,NE,53,0.0,5.0,87,0.00,,,0.00,Wunderground v.1.15,2013-03-06 13:20:00,
2013-03-06 08:25:00,32.4,29.0,30.06,NE,47,1.0,5.0,87,0.00,,,0.00,Wunderground v.1.15,2013-03-06 13:25:00,
2013-03-06 08:30:00,32.5,28.8,30.06,NNE,29,1.0,1.0,86,0.00,,,0.00,Wunderground v.1.15,2013-03-06 13:30:00,
2013-03-06 08:35:00,32.6,28.9,30.06,ENE,57,1.0,5.0,86,0.00,,,0.00,Wunderground v.1.15,2013-03-06 13:35:00,
2013-03-06 08:40:00,32.7,29.0,30.06,North,5,2.0,2.0,86,0.00,,,0.00,Wunderground v.1.15,2013-03-06 13:40:00,
2013-03-06 08:50:00,33.1,29.4,30.06,NE,52,1.0,1.0,86,0.00,,,0.00,Wunderground v.1.15,2013-03-06 13:50:00,
2013-03-06 08:55:00,33.2,29.5,30.07,NNE,31,2.0,2.0,86,0.00,,,0.00,Wunderground v.1.15,2013-03-06 13:55:00,
2013-03-06 09:00:00,33.4,29.7,30.07,ENE,61,2.0,2.0,86,0.00,,,0.00,Wunderground v.1.15,2013-03-06 14:00:00,
2013-03-06 09:05:00,33.5,29.8,30.07,NE,43,1.0,5.0,86,0.00,,,0.00,Wunderground v.1.15,2013-03-06 14:05:00,
2013-03-06 09:10:00,33.7,30.0,30.07,ENE,63,1.0,6.0,86,0.00,,,0.00,Wunderground v.1.15,2013-03-06 14:10:00,
2013-03-06 09:15:00,33.9,30.4,30.07,NE,41,1.0,6.0,87,0.00,,,0.00,Wunderground v.1.15,2013-03-06 14:15:00,
2013-03-06 09:25:00,34.2,30.2,30.07,NE,54,2.0,5.0,85,0.00,,,0.00,Wunderground v.1.15,2013-03-06 14:25:00,
2013-03-06 09:30:00,34.4,30.4,30.07,NNE,31,2.0,2.0,85,0.00,,,0.00,Wunderground v.1.15,2013-03-06 14:30:00,
2013-03-06 09:35:00,34.6,30.3,30.07,NE,38,2.0,5.0,84,0.00,,,0.00,Wunderground v.1.15,2013-03-06 14:35:00,
2013-03-06 09:40:00,34.8,30.8,30.07,NE,52,2.0,2.0,85,0.00,,,0.00,Wunderground v.1.15,2013-03-06 14:40:00,
2013-03-06 09:45:00,35.1,30.8,30.07,NE,46,2.0,5.0,84,0.00,,,0.00,Wunderground v.1.15,2013-03-06 14:45:00,
2013-03-06 09:50:00,35.1,30.8,30.07,NE,36,2.0,2.0,84,0.00,,,0.00,Wunderground v.1.15,2013-03-06 14:50:00,
2013-03-06 09:55:00,35.2,30.9,30.07,ENE,57,1.0,3.0,84,0.00,,,0.00,Wunderground v.1.15,2013-03-06 14:55:00,
2013-03-06 10:05:00,35.1,30.8,30.07,NNE,32,2.0,5.0,84,0.00,,,0.00,Wunderground v.1.15,2013-03-06 15:05:00,
2013-03-06 10:10:00,35.1,31.0,30.07,East,80,2.0,2.0,85,0.00,,,0.00,Wunderground v.1.15,2013-03-06 15:10:00,
2013-03-06 10:15:00,35.1,30.8,30.07,NE,42,2.0,5.0,84,0.00,,,0.00,Wunderground v.1.15,2013-03-06 15:15:00,
2013-03-06 10:20:00,35.2,31.1,30.07,ENE,68,3.0,6.0,85,0.00,,,0.00,Wunderground v.1.15,2013-03-06 15:20:00,
2013-03-06 10:25:00,35.3,30.9,30.07,NE,43,3.0,6.0,84,0.00,,,0.00,Wunderground v.1.15,2013-03-06 15:25:00,
2013-03-06 10:30:00,35.4,31.3,30.07,North,5,2.0,2.0,85,0.00,,,0.00,Wunderground v.1.15,2013-03-06 15:30:00,
2013-03-06 10:40:00,35.4,31.3,30.06,North,10,2.0,2.0,85,0.00,,,0.00,Wunderground v.1.15,2013-03-06 15:40:00,
2013-03-06 10:45:00,35.4,31.3,30.06,North,360,2.0,5.0,85,0.00,,,0.00,Wunderground v.1.15,2013-03-06 15:45:00,
2013-03-06 10:50:00,35.7,31.6,30.06,NE,46,3.0,3.0,85,0.00,,,0.00,Wunderground v.1.15,2013-03-06 15:50:00,
2013-03-06 10:55:00,35.9,31.8,30.06,NNE,29,2.0,5.0,85,0.00,,,0.00,Wunderground v.1.15,2013-03-06 15:55:00,
2013-03-06 11:00:00,35.9,31.5,30.06,North,5,2.0,2.0,84,0.00,,,0.00,Wunderground v.1.15,2013-03-06 16:00:00,
2013-03-06 11:05:00,36.0,31.6,30.06,NE,43,2.0,5.0,84,0.00,,,0.00,Wunderground v.1.15,2013-03-06 16:05:00,
2013-03-06 11:15:00,36.0,31.6,30.07,NE,40,3.0,5.0,84,0.00,,,0.00,Wunderground v.1.15,2013-03-06 16:15:00,
2013-03-06 11:20:00,36.0,31.6,30.07,ENE,74,3.0,3.0,84,0.00,,,0.00,Wunderground v.1.15,2013-03-06 16:20:00,
2013-03-06 11:25:00,36.1,31.7,30.07,NE,38,2.0,5.0,84,0.00,,,0.00,Wunderground v.1.15,2013-03-06 16:25:00,
2013-03-06 11:30:00,36.1,31.7,30.07,NNE,13,1.0,1.0,84,0.00,,,0.00,Wunderground v.1.15,2013-03-06 16:30:00,
2013-03-06 11:35:00,36.1,31.7,30.07,NE,44,1.0,2.0,84,0.00,,,0.00,Wunderground v.1.15,2013-03-06 16:35:00,
2013-03-06 11:40:00,36.2,31.8,30.07,ENE,61,1.0,1.0,84,0.00,,,0.00,Wunderground v.1.15,2013-03-06 16:40:00,
2013-03-06 11:45:00,36.5,32.1,30.07,ENE,61,0.0,5.0,84,0.00,,,0.00,Wunderground v.1.15,2013-03-06 16:45:00,
2013-03-06 11:55:00,37.1,32.1,30.07,NNE,30,1.0,2.0,82,0.00,,,0.00,Wunderground v.1.15,2013-03-06 16:55:00,
2013-03-06 12:00:00,37.6,32.3,30.07,ENE,74,1.0,5.0,81,0.00,,,0.00,Wunderground v.1.15,2013-03-06 17:00:00,
2013-03-06 12:05:00,38.0,31.7,30.07,ENE,58,1.0,5.0,78,0.00,,,0.00,Wunderground v.1.15,2013-03-06 17:05:00,
2013-03-06 12:10:00,38.3,31.4,30.07,ENE,71,3.0,5.0,76,0.00,,,0.00,Wunderground v.1.15,2013-03-06 17:10:00,
2013-03-06 12:15:00,38.5,31.9,30.07,ENE,76,4.0,5.0,77,0.00,,,0.00,Wunderground v.1.15,2013-03-06 17:15:00,
2013-03-06 12:20:00,38.5,31.3,30.07,ENE,75,3.0,3.0,75,0.00,,,0.00,Wunderground v.1.15,2013-03-06 17:20:00,
2013-03-06 12:30:00,38.8,31.2,30.06,East,79,2.0,2.0,74,0.00,,,0.00,Wunderground v.1.15,2013-03-06 17:30:00,
2013-03-06 12:35:00,39.0,31.1,30.07,ENE,69,2.0,5.0,73,0.00,,,0.00,Wunderground v.1.15,2013-03-06 17:35:00,
2013-03-06 12:40:00,38.9,31.3,30.06,ESE,122,2.0,2.0,74,0.00,,,0.00,Wunderground v.1.15,2013-03-06 17:40:00,
2013-03-06 12:45:00,38.8,30.9,30.06,ESE,123,3.0,3.0,73,0.00,,,0.00,Wunderground v.1.15,2013-03-06 17:45:00,
2013-03-06 12:50:00,38.8,30.5,30.06,NE,55,4.0,9.0,72,0.00,,,0.00,Wunderground v.1.15,2013-03-06 17:50:00,
2013-03-06 12:55:00,39.1,30.8,30.06,East,89,4.0,9.0,72,0.00,,,0.00,Wunderground v.1.15,2013-03-06 17:55:00,
2013-03-06 13:00:00,39.5,31.2,30.06,ENE,73,2.0,2.0,72,0.00,,,0.00,Wunderground v.1.15,2013-03-06 18:00:00,
2013-03-06 13:05:00,39.6,31.0,30.06,ENE,71,2.0,5.0,71,0.00,,,0.00,Wunderground v.1.15,2013-03-06 18:05:00,
2013-03-06 13:15:00,39.3,30.7,30.06,NNE,28,2.0,6.0,71,0.00,,,0.00,Wunderground v.1.15,2013-03-06 18:15:00,
2013-03-06 13:20:00,39.3,30.7,30.06,East,97,2.0,2.0,71,0.00,,,0.00,Wunderground v.1.15,2013-03-06 18:20:00,
2013-03-06 13:25:00,39.5,30.9,30.06,NE,40,2.0,4.0,71,0.00,,,0.00,Wunderground v.1.15,2013-03-06 18:25:00,
2013-03-06 13:30:00,39.5,30.9,30.06,NE,49,3.0,3.0,71,0.00,,,0.00,Wunderground v.1.15,2013-03-06 18:30:00,
2013-03-06 13:35:00,39.5,31.2,30.06,ENE,63,2.0,4.0,72,0.00,,,0.00,Wunderground v.1.15,2013-03-06 18:35:00,
2013-03-06 13:40:00,39.3,30.3,30.06,ENE,76,2.0,6.0,70,0.00,,,0.00,Wunderground v.1.15,2013-03-06 18:40:00,
2013-03-06 13:50:00,39.2,30.6,30.06,NE,50,3.0,3.0,71,0.00,,,0.00,Wunderground v.1.15,2013-03-06 18:50:00,
2013-03-06 13:55:00,39.3,30.7,30.06,East,80,3.0,10.0,71,0.00,,,0.00,Wunderground v.1.15,2013-03-06 18:55:00,
2013-03-06 14:00:00,39.3,31.0,30.06,NE,41,3.0,3.0,72,0.00,,,0.00,Wunderground v.1.15,2013-03-06 19:00:00,
2013-03-06 14:05:00,39.1,30.5,30.06,ESE,103,3.0,4.0,71,0.00,,,0.00,Wunderground v.1.15,2013-03-06 19:05:00,
2013-03-06 14:10:00,38.9,31.0,30.07,ENE,71,3.0,6.0,73,0.00,,,0.00,Wunderground v.1.15,2013-03-06 19:10:00,
2013-03-06 14:15:00,38.9,31.0,30.07,East,83,3.0,6.0,73,0.00,,,0.00,Wunderground v.1.15,2013-03-06 19:15:00,
2013-03-06 14:25:00,38.7,30.4,30.07,ENE,67,4.0,4.0,72,0.00,,,0.00,Wunderground v.1.15,2013-03-06 19:25:00,
2013-03-06 14:30:00,38.6,30.4,30.07,ENE,57,4.0,5.0,72,0.00,,,0.00,Wunderground v.1.15,2013-03-06 19:30:00,
2013-03-06 14:35:00,38.6,30.7,30.07,ENE,57,3.0,5.0,73,0.00,,,0.00,Wunderground v.1.15,2013-03-06 19:35:00,
2013-03-06 14:40:00,38.5,30.6,30.07,NNE,13,3.0,5.0,73,0.00,,,0.00,Wunderground v.1.15,2013-03-06 19:40:00,
2013-03-06 14:45:00,38.5,30.3,30.07,NE,55,2.0,5.0,72,0.00,,,0.00,Wunderground v.1.15,2013-03-06 19:45:00,
2013-03-06 14:50:00,38.5,30.3,30.07,NNE,26,2.0,5.0,72,0.00,,,0.00,Wunderground v.1.15,2013-03-06 19:50:00,
2013-03-06 15:00:00,38.0,30.1,30.08,ENE,59,4.0,4.0,73,0.00,,,0.00,Wunderground v.1.15,2013-03-06 20:00:00,
2013-03-06 15:05:00,37.7,29.8,30.08,NNE,22,5.0,5.0,73,0.00,,,0.00,Wunderground v.1.15,2013-03-06 20:05:00,
2013-03-06 15:10:00,37.5,30.0,30.08,ENE,57,4.0,4.0,74,0.00,,,0.00,Wunderground v.1.15,2013-03-06 20:10:00,
2013-03-06 15:15:00,37.5,29.6,30.08,NE,45,4.0,5.0,73,0.00,,,0.00,Wunderground v.1.15,2013-03-06 20:15:00,
2013-03-06 15:20:00,37.3,29.4,30.08,NNE,24,4.0,8.0,73,0.00,,,0.00,Wunderground v.1.15,2013-03-06 20:20:00,
2013-03-06 15:25:00,37.2,29.3,30.08,NNE,28,3.0,8.0,73,0.00,,,0.00,Wunderground v.1.15,2013-03-06 20:25:00,
2013-03-06 15:35:00,37.0,29.1,30.08,East,84,4.0,4.0,73,0.00,,,0.00,Wunderground v.1.15,2013-03-06 20:35:00,
2013-03-06 15:40:00,36.9,29.1,30.08,NE,41,4.0,5.0,73,0.00,,,0.00,Wunderground v.1.15,2013-03-06 20:40:00,
2013-03-06 15:45:00,36.8,29.0,30.08,NE,38,4.0,5.0,73,0.00,,,0.00,Wunderground v.1.15,2013-03-06 20:45:00,
2013-03-06 15:50:00,36.7,28.9,30.08,NNE,24,4.0,6.0,73,0.00,,,0.00,Wunderground v.1.15,2013-03-06 20:50:00,
2013-03-06 15:55:00,36.6,28.8,30.09,NE,34,4.0,6.0,73,0.00,,,0.00,Wunderground v.1.15,2013-03-06 20:55:00,
2013-03-06 16:00:00,36.6,28.8,30.09,NE,36,4.0,4.0,73,0.00,,,0.00,Wunderground v.1.15,2013-03-06 21:00:00,
2013-03-06 16:10:00,36.6,28.8,30.09,NE,36,4.0,4.0,73,0.00,,,0.00,Wunderground v.1.15,2013-03-06 21:10:00,
2013-03-06 16:15:00,36.5,28.7,30.09,NE,37,4.0,5.0,73,0.00,,,0.00,Wunderground v.1.15,2013-03-06 21:15:00,
2013-03-06 16:20:00,36.4,28.6,30.09,NE,34,4.0,5.0,73,0.00,,,0.00,Wunderground v.1.15,2013-03-06 21:20:00,
2013-03-06 16:25:00,36.3,28.5,30.08,NNE,17,4.0,5.0,73,0.00,,,0.00,Wunderground v.1.15,2013-03-06 21:25:00,
2013-03-06 16:30:00,36.3,28.5,30.08,ENE,65,4.0,4.0,73,0.00,,,0.00,Wunderground v.1.15,2013-03-06 21:30:00,
2013-03-06 16:35:00,36.2,28.4,30.09,NE,53,3.0,5.0,73,0.00,,,0.00,Wunderground v.1.15,2013-03-06 21:35:00,
2013-03-06 16:40:00,36.2,28.7,30.09,ENE,69,3.0,5.0,74,0.00,,,0.00,Wunderground v.1.15,2013-03-06 21:40:00,
2013-03-06 16:50:00,36.0,28.5,30.09,NE,46,4.0,7.0,74,0.00,,,0.00,Wunderground v.1.15,2013-03-06 21:50:00,
2013-03-06 16:55:00,35.9,28.4,30.09,NNE,22,4.0,7.0,74,0.00,,,0.00,Wunderground v.1.15,2013-03-06 21:55:00,
2013-03-06 17:00:00,35.9,28.4,30.09,ENE,57,3.0,5.0,74,0.00,,,0.00,Wunderground v.1.15,2013-03-06 22:00:00,
2013-03-06 17:05:00,35.8,28.3,30.09,NNE,32,2.0,5.0,74,0.00,,,0.00,Wunderground v.1.15,2013-03-06 22:05:00,
2013-03-06 17:10:00,35.7,27.9,30.09,NNE,22,3.0,5.0,73,0.00,,,0.00,Wunderground v.1.15,2013-03-06 22:10:00,
2013-03-06 17:15:00,35.8,28.0,30.09,NE,38,4.0,5.0,73,0.00,,,0.00,Wunderground v.1.15,2013-03-06 22:15:00,
2013-03-06 17:25:00,35.7,28.2,30.10,NE,42,2.0,6.0,74,0.00,,,0.00,Wunderground v.1.15,2013-03-06 22:25:00,
2013-03-06 17:30:00,35.7,27.9,30.10,NNE,20,2.0,5.0,73,0.00,,,0.00,Wunderground v.1.15,2013-03-06 22:30:00,
2013-03-06 17:35:00,35.7,27.9,30.10,ENE,59,3.0,5.0,73,0.00,,,0.00,Wunderground v.1.15,2013-03-06 22:35:00,
2013-03-06 17:40:00,35.8,27.7,30.11,NE,45,3.0,3.0,72,0.00,,,0.00,Wunderground v.1.15,2013-03-06 22:40:00,
2013-03-06 17:45:00,35.7,27.9,30.11,NNE,17,2.0,5.0,73,0.00,,,0.00,Wunderground v.1.15,2013-03-06 22:45:00,
2013-03-06 17:50:00,35.6,27.8,30.11,ENE,59,2.0,2.0,73,0.00,,,0.00,Wunderground v.1.15,2013-03-06 22:50:00,
2013-03-06 18:00:00,35.7,27.9,30.12,NE,35,3.0,8.0,73,0.00,,,0.00,Wunderground v.1.15,2013-03-06 23:00:00,
2013-03-06 18:05:00,35.7,27.9,30.12,NNE,28,3.0,8.0,73,0.00,,,0.00,Wunderground v.1.15,2013-03-06 23:05:00,
2013-03-06 18:10:00,35.6,28.1,30.12,North,5,2.0,2.0,74,0.00,,,0.00,Wunderground v.1.15,2013-03-06 23:10:00,
2013-03-06 18:15:00,35.5,27.7,30.12,NE,51,1.0,5.0,73,0.00,,,0.00,Wunderground v.1.15,2013-03-06 23:15:00,
2013-03-06 18:20:00,35.5,28.0,30.12,NE,50,2.0,6.0,74,0.00,,,0.00,Wunderground v.1.15,2013-03-06 23:20:00,
2013-03-06 18:25:00,35.5,28.0,30.12,NNE,26,2.0,6.0,74,0.00,,,0.00,Wunderground v.1.15,2013-03-06 23:25:00,
2013-03-06 18:30:00,35.5,27.7,30.12,ENE,71,3.0,5.0,73,0.00,,,0.00,Wunderground v.1.15,2013-03-06 23:30:00,
2013-03-06 18:40:00,35.4,27.9,30.13,ENE,59,2.0,5.0,74,0.00,,,0.00,Wunderground v.1.15,2013-03-06 23:40:00,
2013-03-06 18:45:00,35.4,27.9,30.13,NNE,23,2.0,5.0,74,0.00,,,0.00,Wunderground v.1.15,2013-03-06 23:45:00,
2013-03-06 18:50:00,35.3,28.2,30.13,NNE,30,1.0,5.0,75,0.00,,,0.00,Wunderground v.1.15,2013-03-06 23:50:00,
2013-03-06 18:55:00,35.3,27.8,30.13,NE,49,1.0,5.0,74,0.00,,,0.00,Wunderground v.1.15,2013-03-06 23:55:00,
2013-03-06 19:00:00,35.3,28.2,30.13,NE,34,1.0,1.0,75,0.00,,,0.00,Wunderground v.1.15,2013-03-07 00:00:00,
2013-03-06 19:05:00,35.2,28.1,30.13,NE,47,2.0,12.0,75,0.00,,,0.00,Wunderground v.1.15,2013-03-07 00:05:00,
2013-03-06 19:15:00,35.2,28.4,30.13,ENE,71,4.0,10.0,76,0.00,,,0.00,Wunderground v.1.15,2013-03-07 00:15:00,
2013-03-06 19:20:00,35.1,28.0,30.13,NE,36,4.0,6.0,75,0.00,,,0.00,Wunderground v.1.15,2013-03-07 00:20:00,
2013-03-06 19:25:00,35.0,27.9,30.14,East,84,4.0,6.0,75,0.00,,,0.00,Wunderground v.1.15,2013-03-07 00:25:00,
2013-03-06 19:30:00,35.0,27.5,30.14,NE,41,4.0,4.0,74,0.00,,,0.00,Wunderground v.1.15,2013-03-07 00:30:00,
2013-03-06 19:35:00,34.9,27.8,30.14,ENE,76,4.0,5.0,75,0.00,,,0.00,Wunderground v.1.15,2013-03-07 00:35:00,
2013-03-06 19:40:00,34.8,27.7,30.14,ENE,77,3.0,5.0,75,0.00,,,0.00,Wunderground v.1.15,2013-03-07 00:40:00,
2013-03-06 19:50:00,34.7,27.3,30.14,NE,42,3.0,3.0,74,0.00,,,0.00,Wunderground v.1.15,2013-03-07 00:50:00,
2013-03-06 19:55:00,34.6,27.2,30.14,NE,44,3.0,5.0,74,0.00,,,0.00,Wunderground v.1.15,2013-03-07 00:55:00,
2013-03-06 20:00:00,34.6,27.2,30.13,ENE,69,3.0,5.0,74,0.00,,,0.00,Wunderground v.1.15,2013-03-07 01:00:00,
2013-03-06 20:05:00,34.6,26.8,30.14,ENE,65,3.0,5.0,73,0.00,,,0.00,Wunderground v.1.15,2013-03-07 01:05:00,
2013-03-06 20:10:00,34.5,26.7,30.13,ENE,62,3.0,8.0,73,0.00,,,0.00,Wunderground v.1.15,2013-03-07 01:10:00,
2013-03-06 20:15:00,34.5,26.4,30.13,NE,44,3.0,8.0,72,0.00,,,0.00,Wunderground v.1.15,2013-03-07 01:15:00,
2013-03-06 20:25:00,34.4,26.3,30.13,NE,55,2.0,5.0,72,0.00,,,0.00,Wunderground v.1.15,2013-03-07 01:25:00,
2013-03-06 20:30:00,34.4,26.3,30.13,NE,44,1.0,5.0,72,0.00,,,0.00,Wunderground v.1.15,2013-03-07 01:30:00,
2013-03-06 20:35:00,34.4,26.0,30.13,NE,39,2.0,5.0,71,0.00,,,0.00,Wunderground v.1.15,2013-03-07 01:35:00,
2013-03-06 20:40:00,34.4,26.0,30.13,ESE,102,3.0,3.0,71,0.00,,,0.00,Wunderground v.1.15,2013-03-07 01:40:00,
2013-03-06 20:45:00,34.4,26.0,30.13,NE,46,3.0,6.0,71,0.00,,,0.00,Wunderground v.1.15,2013-03-07 01:45:00,
2013-03-06 20:50:00,34.4,26.0,30.13,NNE,19,2.0,5.0,71,0.00,,,0.00,Wunderground v.1.15,2013-03-07 01:50:00,
2013-03-06 20:55:00,34.3,25.9,30.13,ENE,62,2.0,5.0,71,0.00,,,0.00,Wunderground v.1.15,2013-03-07 01:55:00,
2013-03-06 21:05:00,34.3,25.9,30.13,NNE,20,3.0,6.0,71,0.00,,,0.00,Wunderground v.1.15,2013-03-07 02:05:00,
2013-03-06 21:10:00,34.3,26.2,30.13,NNE,33,1.0,5.0,72,0.00,,,0.00,Wunderground v.1.15,2013-03-07 02:10:00,
2013-03-06 21:15:00,34.2,25.8,30.13,NE,36,1.0,5.0,71,0.00,,,0.00,Wunderground v.1.15,2013-03-07 02:15:00,
2013-03-06 21:20:00,34.2,25.8,30.13,NE,36,2.0,5.0,71,0.00,,,0.00,Wunderground v.1.15,2013-03-07 02:20:00,
2013-03-06 21:25:00,34.2,26.1,30.13,NNE,14,2.0,6.0,72,0.00,,,0.00,Wunderground v.1.15,2013-03-07 02:25:00,
2013-03-06 21:35:00,34.2,25.8,30.13,NE,43,2.0,5.0,71,0.00,,,0.00,Wunderground v.1.15,2013-03-07 02:35:00,
2013-03-06 21:40:00,34.2,25.8,30.13,NE,50,1.0,6.0,71,0.00,,,0.00,Wunderground v.1.15,2013-03-07 02:40:00,
2013-03-06 21:45:00,34.2,25.8,30.13,NNE,27,1.0,6.0,71,0.00,,,0.00,Wunderground v.1.15,2013-03-07 02:45:00,
2013-03-06 21:50:00,34.1,26.0,30.13,NNE,27,1.0,1.0,72,0.00,,,0.00,Wunderground v.1.15,2013-03-07 02:50:00,
2013-03-06 21:55:00,34.0,25.9,30.13,NE,49,0.0,5.0,72,0.00,,,0.00,Wunderground v.1.15,2013-03-07 02:55:00,
2013-03-06 22:00:00,33.9,25.8,30.13,NE,55,1.0,1.0,72,0.00,,,0.00,Wunderground v.1.15,2013-03-07 03:00:00,
2013-03-06 22:10:00,33.9,25.8,30.13,NE,38,1.0,1.0,72,0.00,,,0.00,Wunderground v.1.15,2013-03-07 03:10:00,
2013-03-06 22:15:00,33.8,25.7,30.13,NNW,345,1.0,5.0,72,0.00,,,0.00,Wunderground v.1.15,2013-03-07 03:15:00,
2013-03-06 22:20:00,33.8,25.7,30.13,NE,48,1.0,1.0,72,0.00,,,0.00,Wunderground v.1.15,2013-03-07 03:20:00,
2013-03-06 22:25:00,33.7,25.3,30.13,North,360,1.0,5.0,71,0.00,,,0.00,Wunderground v.1.15,2013-03-07 03:25:00,
2013-03-06 22:30:00,33.7,25.6,30.13,NNE,26,2.0,5.0,72,0.00,,,0.00,Wunderground v.1.15,2013-03-07 03:30:00,
2013-03-06 22:35:00,33.7,25.3,30.13,NW,321,2.0,5.0,71,0.00,,,0.00,Wunderground v.1.15,2013-03-07 03:35:00,
2013-03-06 22:45:00,33.5,25.4,30.13,NNE,22,1.0,5.0,72,0.00,,,0.00,Wunderground v.1.15,2013-03-07 03:45:00,
2013-03-06 22:50:00,33.5,25.8,30.13,North,10,1.0,5.0,73,0.00,,,0.00,Wunderground v.1.15,2013-03-07 03:50:00,
2013-03-06 22:55:00,33.5,25.8,30.13,North,360,1.0,5.0,73,0.00,,,0.00,Wunderground v.1.15,2013-03-07 03:55:00,
2013-03-06 23:00:00,33.5,25.8,30.13,North,360,2.0,2.0,73,0.00,,,0.00,Wunderground v.1.15,2013-03-07 04:00:00,
2013-03-06 23:05:00,33.5,25.4,30.13,NNE,17,1.0,5.0,72,0.00,,,0.00,Wunderground v.1.15,2013-03-07 04:05:00,
2013-03-06 23:10:00,33.4,25.7,30.13,NE,40,1.0,5.0,73,0.00,,,0.00,Wunderground v.1.15,2013-03-07 04:10:00,
2013-03-06 23:15:00,33.4,25.3,30.13,NE,43,1.0,5.0,72,0.00,,,0.00,Wunderground v.1.15,2013-03-07 04:15:00,
2013-03-06 23:25:00,33.4,25.7,30.13,NE,36,1.0,5.0,73,0.00,,,0.00,Wunderground v.1.15,2013-03-07 04:25:00,
2013-03-06 23:30:00,33.3,25.2,30.13,NNE,21,2.0,2.0,72,0.00,,,0.00,Wunderground v.1.15,2013-03-07 04:30:00,
2013-03-06 23:35:00,33.3,25.6,30.13,NE,47,2.0,5.0,73,0.00,,,0.00,Wunderground v.1.15,2013-03-07 04:35:00,
2013-03-06 23:40:00,33.3,25.6,30.13,NE,39,3.0,5.0,73,0.00,,,0.00,Wunderground v.1.15,2013-03-07 04:40:00,
2013-03-06 23:45:00,33.4,25.3,30.13,NE,55,3.0,6.0,72,0.00,,,0.00,Wunderground v.1.15,2013-03-07 04:45:00,
2013-03-06 23:50:00,33.4,25.7,30.13,NNE,20,2.0,2.0,73,0.00,,,0.00,Wunderground v.1.15,2013-03-07 04:50:00,